Regional Weather Roundup
Issued by NWS Charleston, WV

Home | Current Version | Previous Version | Text Only | Print | Product List | Glossary Off
Versions: 1 2 3 4 5 6 7 8 9 10 11 12 13 14 15 16 17 18 19 20 21 22 23 24 25 26 27 28 29 30 31 32 33 34 35 36 37 38 39 40 41 42 43 44 45 46 47

000
ASUS41 KRLX 191310
RWRRLX
West Virginia Regional Weather Roundup
National Weather Service Charleston WV
800 AM EST FRI DEC 19 2014

Note: "fair" indicates few or no clouds below 12,000 feet with no
significant weather and/or obstructions to visibility.

WVZ003-191400-
Northern Panhandle of West Virginia

CITY           SKY/WX    TMP DP  RH WIND       PRES   REMARKS
WHEELING       CLOUDY    27  23  85 W6        30.20R
$$

WVZ009-191400-
Northwest West Virginia

CITY           SKY/WX    TMP DP  RH WIND       PRES   REMARKS
PARKERSBURG    CLOUDY    29  22  75 CALM      30.28R
$$

WVZ006-191400-
Western West Virginia

CITY           SKY/WX    TMP DP  RH WIND       PRES   REMARKS
HUNTINGTON     CLOUDY    28  22  78 N3        30.26R
$$

WVZ015-191400-
West Central West Virginia

CITY           SKY/WX    TMP DP  RH WIND       PRES   REMARKS
CHARLESTON     CLOUDY    28  22  78 NW3       30.25R
$$

WVZ022-031-191400-
North Central West Virginia

CITY           SKY/WX    TMP DP  RH WIND       PRES   REMARKS
CLARKSBURG     CLOUDY    28  21  75 W5        30.22R
MORGANTOWN     CLOUDY    28  20  71 SW6       30.21R
$$

WVZ025-035-042-045-191400-
Southern West Virginia

CITY           SKY/WX    TMP DP  RH WIND       PRES   REMARKS
BECKLEY        CLOUDY    24  18  77 N10       30.15R
LOGAN          CLOUDY    27  23  86 CALM      30.21R
BLUEFIELD      MOCLDY    27  20  75 NW9       30.13R
LEWISBURG      PTCLDY    27  22  81 SW6       30.14R
$$

WVZ047-191400-
Northern Mountains of West Virginia

CITY           SKY/WX    TMP DP  RH WIND       PRES   REMARKS
ELKINS         CLOUDY    25  21  85 W7        30.18R
$$

WVZ052-191400-
Eastern Panhandle of West Virginia

CITY           SKY/WX    TMP DP  RH WIND       PRES   REMARKS
MARTINSBURG    CLOUDY    34  20  56 NW17      30.15R
PETERSBURG     CLOUDY    28  23  79 CALM      30.19R
$$



USA.gov is the U.S. government's official web portal to all federal, state and local government web resources and services.